Regional Weather Roundup
Issued by NWS Wilmington, NC

Home | Current Version | Previous Version | Text Only | Print | Product List | Glossary On
Versions: 1 2 3 4 5 6 7 8 9 10 11 12 13 14 15 16 17 18 19 20 21 22 23 24 25 26 27 28 29 30 31 32 33 34 35 36 37 38 39 40 41 42 43 44 45 46 47 48 49 50
000
ASUS42 KILM 251713
RWRILM
RWRILM
REGIONAL HOURLY WEATHER ROUNDUP
NATIONAL WEATHER SERVICE WILMINGTON NC
100 PM EDT SAT MAR 25 2017

NOTE: "FAIR" INDICATES FEW OR NO CLOUDS BELOW 12,000 FEET WITH NO
SIGNIFICANT WEATHER AND/OR OBSTRUCTIONS TO VISIBILITY.

...............WFO WILMINGTON COUNTY WARNING AREA...............

......COASTAL NC AND SC COUNTIES......

CITY           SKY/WX    TMP DP  RH WIND       PRES   REMARKS
WILMINGTON     PTSUNNY   73  49  42 S8        30.33F
N MYRTLE BEACH CLOUDY    69  54  58 S9        30.34F
MYRTLE BEACH   CLOUDY    72  54  53 S14       30.35

......INLAND NC AND SC COUNTIES.......

CITY           SKY/WX    TMP DP  RH WIND       PRES   REMARKS
LUMBERTON      MOSUNNY   73  50  44 S12       30.31F
ELIZABETHTOWN  CLOUDY    73  50  43 SW8G16    30.32F
WHITEVILLE     PTSUNNY   73  49  43 SW6       30.32F
FLORENCE       PTSUNNY   72  50  45 SW12G17   30.32F
DARLINGTON     PTSUNNY   72  51  47 SW9       30.32F
KINGSTREE      PTSUNNY   73  45  35 S7        30.32F
HARTSVILLE     FAIR      73  50  43 S9        30.32F
BENNETTSVILLE  CLOUDY    72  54  53 SW9G16    30.31F
CONWAY         FAIR      73  50  43 SE10G16   30.33F
GEORGETOWN     CLOUDY    72  52  49 S5        30.35S
MARION         CLOUDY    72  50  46 SW6       30.32F

....................REST OF NORTH CAROLINA......................

.........EASTERN NC.........

CITY           SKY/WX    TMP DP  RH WIND       PRES   REMARKS
CAPE HATTERAS  MOSUNNY   70  53  54 SW8       30.33F
JACKSONVILLE   CLOUDY    72  54  53 SW9       30.32F
MOREHEAD CITY  SUNNY     72  55  55 SW15      30.34F
KENANSVILLE    CLOUDY    73  52  46 SW10G18   30.32F
NEW BERN       PTSUNNY   75  51  43 SW10G18   30.32F
ELIZABETH CITY PTSUNNY   73  53  49 SW17G26   30.29F

.........CENTRAL NC.........

CITY           SKY/WX    TMP DP  RH WIND       PRES   REMARKS
RALEIGH DURHAM PTSUNNY   71  51  49 SW17G26   30.30F
ROCKY MOUNT    CLOUDY    72  53  51 SW14G20   30.30F
ROANOKE RAPIDS NOT AVBL
FAYETTEVILLE   PTSUNNY   75  50  41 S14       30.30F
HOFFMAN        CLOUDY    72  50  46 SW7       30.30F

.........WESTERN NC.........

CITY           SKY/WX    TMP DP  RH WIND       PRES   REMARKS
CHARLOTTE      CLOUDY    70  50  49 S8        30.31F
GREENSBORO     CLOUDY    69  51  52 W13       30.28F
HICKORY        NOT AVBL
BOONE          NOT AVBL
ASHEVILLE      NOT AVBL

.....................REST OF SOUTH CAROLINA.....................

.........EASTERN SC.........

CITY           SKY/WX    TMP DP  RH WIND       PRES   REMARKS
CHARLESTON     CLOUDY    74  51  44 SE16      30.33F
BEAUFORT MCAS  PTSUNNY   75  58  55 SE6       30.32F
HILTON HEAD    MOSUNNY   68  55  64 SE8       30.33F

.........CENTRAL SC.........

CITY           SKY/WX    TMP DP  RH WIND       PRES   REMARKS
COLUMBIA       CLOUDY    74  50  42 S9        30.30F
ORANGEBURG     CLOUDY    74  49  41 S10       30.31F
SUMTER SHAW    PTSUNNY   75  49  39 S8        30.29F

.........WESTERN SC.........

CITY           SKY/WX    TMP DP  RH WIND       PRES   REMARKS
GREENVILLE     NOT AVBL
ROCK HILL      PTSUNNY   70  53  54 SW9       30.30F
ANDERSON       CLOUDY    68  52  56 S10       30.28F
CLEMSON        NOT AVBL
GREENWOOD      CLOUDY    70  52  52 SW10      30.30F


...................COASTAL AND OFFSHORE REPORTS..................

................LOCAL PIERS AND NC RESERVE................


STATION/POSITION TIME  SKY/WX   TEMP    WIND        PRES    VSBY
                                AIR SEA DIR/SP/G
                 (UTC)          (F)     (DEG/KT/KT) (MB)    (MI)
JOHNY MRCER PIER 1642            64 57  160/ 13/ 13 1026.2F
NC RESRV MASNBRO 1545            70     210/  4     1027.0
OCEAN CREST PIER NOT AVBL
SPRINGMAID  PIER 1648                               1027.0F


................COASTAL AND OFFSHORE BUOYS................


STATION/POSITION TIME  SKY/WX   TEMP    WIND        PRES    VSBY
                                AIR SEA DIR/SP/G
                 (UTC)          (F)     (DEG/KT/KT) (MB)    (MI)
DIMNDSHOAL 41025 1650            69 76  240/ 14/ 17 1027.3F
WVE H/P(F/S)=  3/ 8 SWL H/P/D(F/S/D)=  2/200/ 8

CAPE LOOKOUT     1700            70     200/ 11/ 15 1027.2F
ONSLOW BAY 41036 NOT AVBL
ONSLOW BAY 41064 1608            67     200/  8/ 12 1028.4F
ONSLOW BAY 41159 1643               65                N/A
WVE H/P(F/S)=  3/ 7

MASNBO INL 41110 1659               58                N/A
WVE H/P(F/S)=  3/ 6

WILM HARBR 41108 1647               58                N/A
WVE H/P(F/S)=  3/ 6

27SE WRITB 41037 1608            66 62  220/  4/  6 1027.5F
FRYING PAN 41013 1700            69 72  160/ 10/ 14 1027.8
SUNST NRSH 41024 NOT AVBL
CAPRS NRSH 41029 1608            63     100/  4/  6 1027.7F
EDISTO     41004 1650            70 70  130/ 14/ 16 1027.0F
WVE H/P(F/S)=  5/ 6 SWL H/P/D(F/S/D)=  3/130/ 8



..........OFFSHORE BUOYS BEYOND 100 NM OFFSHORE...........
.....IN A TRIANGLE---HAT TO BERMUDA TO BAHAMAS TO HAT.....


STATION/POSITION TIME  SKY/WX   TEMP    WIND        PRES    VSBY
                                AIR SEA DIR/SP/G
                 (UTC)          (F)     (DEG/KT/KT) (MB)    (MI)
150E HAT   41001 NOT AVBL
W BERMUDA  41048 1550            63 68  110/ 14/ 17 1030.5
WVE H/P(F/S)=  5/10 SWL H/P/D(F/S/D)=  3/ 30/10

ATLANTIC S 41049 1650            69 72   70/ 23/ 27 1024.4F
WVE H/P(F/S)= 11/11 SWL H/P/D(F/S/D)=  7/350/11

E BAHAMAS  41046 NOT AVBL
NE BAHAMAS 41047 1700            69 72   60/ 21/ 27 1024.3
120E CANVRL41010 NOT AVBL

END



USA.gov is the U.S. government's official web portal to all federal, state and local government web resources and services.